Location: Dob?e?
(49.9411°N, 15.1496°E)
Time: 00:54:36
(UTC+00:00)

GEOS 3 Rocket - Visible Passes

Search period start: 14 June 2021 00:00
Search period end: 24 June 2021 00:00
Orbit: 776 x 843 km, 115.0° (Epoch: 13 June)

Date Brightness Start Highest point End Pass type
(mag) Time Alt. Az. Time Alt. Az. Time Alt. Az.
14 Jun 4.6 20:04:39 10° ESE 20:09:43 44° NE 20:14:45 10° NW visible
14 Jun 4.0 21:44:23 22° SSE 21:47:40 53° SW 21:52:55 10° NW visible
14 Jun 5.8 23:25:33 10° WSW 23:26:39 11° WSW 23:27:45 10° W visible
15 Jun 3.7 21:19:40 18° SE 21:23:45 83° SW 21:29:08 10° NW visible
15 Jun 5.3 23:00:45 17° SW 23:02:24 19° WSW 23:06:07 10° WNW visible
16 Jun 3.9 20:54:56 12° ESE 20:59:56 67° NE 21:05:14 10° NW visible
16 Jun 4.7 22:36:02 23° SSW 22:38:14 31° WSW 22:42:58 10° WNW visible
17 Jun 4.5 20:31:06 10° ESE 20:36:12 47° NE 20:41:17 10° NW visible
17 Jun 4.1 22:11:18 25° S 22:14:12 49° SW 22:19:25 10° NW visible
18 Jun 5.0 20:07:46 10° E 20:12:33 34° NNE 20:17:18 10° NNW visible
18 Jun 3.7 21:46:33 21° SE 21:50:16 77° SW 21:55:39 10° NW visible
18 Jun 5.3 23:27:39 16° SW 23:28:57 17° WSW 23:32:27 10° WNW visible
19 Jun 3.9 21:21:48 14° SE 21:26:26 72° NE 21:31:46 10° NW visible
19 Jun 4.8 23:02:53 23° SSW 23:04:48 29° WSW 23:09:24 10° WNW visible
20 Jun 4.4 20:57:32 10° ESE 21:02:41 49° NE 21:07:49 10° NW visible
20 Jun 4.1 22:38:08 27° S 22:40:44 46° SW 22:45:53 10° NW visible
21 Jun 5.0 20:34:11 10° E 20:39:01 36° NNE 20:43:50 10° NNW visible
21 Jun 3.7 22:13:22 23° SSE 22:16:47 72° SW 22:22:09 10° NW visible
21 Jun 5.3 23:54:27 15° SW 23:55:32 16° WSW 23:58:44 10° WNW visible
22 Jun 5.4 20:11:00 10° E 20:15:27 27° NNE 20:19:52 10° NNW visible
22 Jun 3.8 21:48:35 16° SE 21:52:56 76° NE 21:58:17 10° NW visible
22 Jun 4.8 23:29:40 23° SSW 23:31:21 26° WSW 23:35:49 10° WNW visible
23 Jun 4.4 21:23:59 10° ESE 21:29:11 52° NE 21:34:21 10° NW visible
23 Jun 4.2 23:04:53 27° S 23:07:17 42° WSW 23:12:22 10° NW visible
